Flag for Germany Weather past 2 weeks in Gera, Thuringia, Germany

Now
74 °F

Overcast.


Feels Like: 77 °F
Forecast: 58 / 87 °F
Wind: 5 mph from Northeast

Location: Gera-Leumnitz

Current Time: Jul 1, 2015 at 9:39:52 PM

Latest Report: Jul 1, 2015 at 9:00 PM


Visibility: 41 mi

Pressure: 30.13 "Hg

Humidity: 53%

Dew point: 56 °F

Location of GeraLocation

Historic Weather in Gera — Graph

°F

Gera temperature yesterday

Maximum temperature yesterday: 75 °F (at 2:00 PM)
Minimum temperature yesterday: 57 °F (at 6:00 AM)
Average temperature yesterday: 67 °F

Past Weeks' High & Low Weather Summary

 TemperatureHumidityPressure
High80 °F (Jul 1, 5:00 PM)99% (Jun 23, 3:00 AM)30.29 "Hg (Jun 23, 3:00 AM)
Low42 °F (Jun 17, 4:00 AM)37% (Jun 29, 5:00 PM)29.64 "Hg (Jun 23, 4:00 AM)
Average59 °F74%30.06 "Hg
* Reported Jun 16 8:00 PM — Jul 1 8:00 PM, Gera, Weather by CustomWeather, © 2015

Note: Actual official high and low records may vary slightly from our data, if they occured in-between our weather recording intervals... More about our weather records

Advertising

Gera weather history for previous 24 hours

 ConditionsComfort  
Time TempWeatherWind HumidityBarometerVisibility
8:00 PM
Wed, Jul 1
77 °FPassing clouds.3 mph49%30.13 "Hg43 mi
7:00 PM79 °FSunny.6 mph43%30.12 "Hg34 mi
6:00 PM79 °FSunny.5 mph41%30.13 "Hg28 mi
5:00 PM80 °FSunny.3 mph43%30.14 "Hg28 mi
4:00 PM79 °FPassing clouds.5 mph40%30.14 "Hg28 mi
3:00 PM78 °FPassing clouds.5 mph42%30.15 "Hg28 mi
2:00 PM78 °FPassing clouds.3 mph44%30.15 "Hg28 mi
1:00 PM76 °FPassing clouds.3 mph49%30.17 "Hg28 mi
12:00 PM75 °FPassing clouds.5 mph47%30.18 "Hg25 mi
11:00 AM74 °FPassing clouds.5 mph50%30.18 "Hg22 mi
10:00 AM73 °FPassing clouds.3 mph52%30.18 "Hg19 mi
9:00 AM68 °FSunny.2 mph68%30.19 "Hg16 mi
8:00 AM62 °FSunny.1 mph79%30.20 "Hg12 mi
7:00 AM58 °FSunny.1 mph87%30.21 "Hg12 mi
6:00 AM54 °FSunny.1 mph96%30.21 "Hg11 mi
5:00 AM54 °FFog.1 mph96%30.20 "Hg2 mi
4:00 AM56 °FClear.1 mph92%30.19 "Hg5 mi
3:00 AM58 °FClear.1 mph86%30.19 "Hg9 mi
2:00 AM60 °FClear.1 mph73%30.19 "Hg17 mi
1:00 AM61 °FClear.1 mph71%30.18 "Hg19 mi
12:00 AM65 °FClear.2 mph61%30.18 "Hg22 mi
11:00 PM
Tue, Jun 30
67 °FClear.2 mph55%30.17 "Hg28 mi
10:00 PM69 °FClear.2 mph56%30.16 "Hg25 mi
9:00 PM71 °FSunny.2 mph53%30.14 "Hg22 mi
Weather by CustomWeather, © 2015

See weather overviewHow to use our weather pages